Time,TemperatureF,DewpointF,PressureIn,WindDirection,WindDirectionDegrees,WindSpeedMPH,WindSpeedGustMPH,Humidity,HourlyPrecipIn,Conditions,Clouds,dailyrainin,SoftwareType,DateUTC
2013-07-22 00:00:00,54.0,-99.9,-100.00,North,360,0.0,0.0,-999,-99.99,,,0.00,,2013-07-22 06:00:00,
2013-07-22 00:52:00,54.0,-99.9,-100.00,North,360,0.0,0.0,-999,-99.99,,,0.00,,2013-07-22 06:52:00,
2013-07-22 01:00:00,55.0,-99.9,-100.00,North,-999,-999.0,-999.0,-999,-99.99,,,0.00,,2013-07-22 07:00:00,
2013-07-22 01:53:00,55.0,-99.9,-100.00,North,-999,-999.0,-999.0,-999,-99.99,,,0.00,,2013-07-22 07:53:00,
2013-07-22 02:00:00,53.0,-99.9,-100.00,North,-999,-999.0,-999.0,-999,-99.99,,,0.00,,2013-07-22 08:00:00,
2013-07-22 02:52:00,53.0,-99.9,-100.00,North,-999,-999.0,-999.0,-999,-99.99,,,0.00,,2013-07-22 08:52:00,
2013-07-22 03:00:00,50.0,-99.9,-100.00,North,360,0.0,0.0,-999,-99.99,,,0.00,,2013-07-22 09:00:00,
2013-07-22 03:52:00,50.0,-99.9,-100.00,North,360,0.0,0.0,-999,-99.99,,,0.00,,2013-07-22 09:52:00,
2013-07-22 05:00:00,46.0,-99.9,-100.00,North,0,0.0,0.0,-999,-99.99,,,0.00,,2013-07-22 11:00:00,
2013-07-22 05:52:00,46.0,-99.9,-100.00,North,0,0.0,0.0,-999,-99.99,,,0.00,,2013-07-22 11:52:00,
2013-07-22 06:00:00,45.0,-99.9,-100.00,North,0,0.0,0.0,-999,-99.99,,,0.00,,2013-07-22 12:00:00,
2013-07-22 08:00:00,57.0,-99.9,-100.00,North,0,0.0,0.0,-999,-99.99,,,0.00,,2013-07-22 14:00:00,
2013-07-22 08:53:00,57.0,-99.9,-100.00,North,0,0.0,0.0,-999,-99.99,,,0.00,,2013-07-22 14:53:00,
2013-07-22 09:00:00,66.0,-99.9,-100.00,North,2,0.0,0.0,-999,-99.99,,,0.00,,2013-07-22 15:00:00,
2013-07-22 09:52:00,66.0,-99.9,-100.00,North,2,0.0,0.0,-999,-99.99,,,0.00,,2013-07-22 15:52:00,
2013-07-22 10:00:00,73.0,-99.9,-100.00,North,0,2.0,11.0,-999,-99.99,,,0.00,,2013-07-22 16:00:00,
2013-07-22 11:00:00,74.0,-99.9,-100.00,North,-999,-999.0,-999.0,-999,-99.99,,,0.00,,2013-07-22 17:00:00,
2013-07-22 11:52:00,74.0,-99.9,-100.00,North,-999,-999.0,-999.0,-999,-99.99,,,0.00,,2013-07-22 17:52:00,
2013-07-22 12:00:00,76.0,-99.9,-100.00,North,1,5.0,13.0,-999,-99.99,,,0.00,,2013-07-22 18:00:00,
2013-07-22 12:59:00,76.0,-99.9,-100.00,North,1,5.0,13.0,-999,-99.99,,,0.00,,2013-07-22 18:59:00,
2013-07-22 13:00:00,76.0,-99.9,-100.00,North,1,6.0,15.0,-999,-99.99,,,0.00,,2013-07-22 19:00:00,
2013-07-22 13:56:00,76.0,-99.9,-100.00,North,1,6.0,15.0,-999,-99.99,,,0.00,,2013-07-22 19:56:00,
2013-07-22 14:00:00,79.0,-99.9,-100.00,North,0,6.0,17.0,-999,-99.99,,,0.00,,2013-07-22 20:00:00,
2013-07-22 14:52:00,79.0,-99.9,-100.00,North,0,6.0,17.0,-999,-99.99,,,0.00,,2013-07-22 20:52:00,
2013-07-22 15:00:00,79.0,-99.9,-100.00,North,0,5.0,18.0,-999,-99.99,,,0.00,,2013-07-22 21:00:00,
2013-07-22 15:53:00,79.0,-99.9,-100.00,North,0,5.0,18.0,-999,-99.99,,,0.00,,2013-07-22 21:53:00,
2013-07-22 16:00:00,76.0,-99.9,-100.00,North,1,2.0,14.0,-999,-99.99,,,0.00,,2013-07-22 22:00:00,
2013-07-22 16:52:00,76.0,-99.9,-100.00,North,1,2.0,14.0,-999,-99.99,,,0.00,,2013-07-22 22:52:00,
2013-07-22 17:00:00,79.0,-99.9,-100.00,North,-999,-999.0,-999.0,-999,-99.99,,,0.00,,2013-07-22 23:00:00,
2013-07-22 18:00:00,77.0,-99.9,-100.00,North,1,0.0,12.0,-999,-99.99,,,0.00,,2013-07-23 00:00:00,
2013-07-22 18:52:00,77.0,-99.9,-100.00,North,1,0.0,12.0,-999,-99.99,,,0.00,,2013-07-23 00:52:00,
2013-07-22 23:00:00,48.0,-99.9,-100.00,North,1,0.0,0.0,-999,-99.99,,,0.00,,2013-07-23 05:00:00,